Weather History for LZIB - September, 2013

Change the Weather History Date:

Friday, September 6, 2013

  Actual Average (WUND) Record (WUND)
Temperature  
Mean Temperature 65 °F -  
Max Temperature 77 °F 65 °F - (-1)
Min Temperature 53 °F 49 °F - (-1)
Growing Degree Days 15 (Base 50)    
Moisture  
Dew Point 51 °F    
Average Humidity 60    
Maximum Humidity 88    
Minimum Humidity 27    
Precipitation  
Precipitation 0.00 in - - ()
Sea Level Pressure  
Sea Level Pressure 30.03 in    
Wind  
Wind Speed 6 mph ()    
Max Wind Speed 10 mph    
Max Gust Speed -    
Visibility 16.3 miles    
Events      
Averages and records for this station are not official NWS values.
T = Trace of Precipitation, MM = Missing Value Source: Averaged Metar Reports

Daily Weather History Graph

Daily Weather History Graph

Search for Another Location

Airport or City:

Trip Planner

Search our weather history database for the weather conditions in past years. The results will help you decide how hot, cold, wet, or windy it might be!

Date:

Astronomy

Sep. 06, 2013 Rise Set
Actual Time 6:15 AM CEST 7:22 PM CEST
Civil Twilight 5:43 AM CEST 7:54 PM CEST
Nautical Twilight 5:05 AM CEST 8:32 PM CEST
Astronomical Twilight 4:24 AM CEST 9:13 PM CEST
Moon 7:18 AM CEST (9/6) 7:26 PM CEST (9/6)
Length of Visible Light 14h 10m
Length of Day
13h 06m
New Moon, 1% of the Moon is Illuminated
Sep 6
New Moon
Sep 12
First Quarter
Sep 19
Full
Sep 27
Last Quarter
Oct 5
New

Hourly Weather History & Observations

Time (CEST) Temp. Dew Point Humidity Pressure Visibility Wind Dir Wind Speed Gust Speed Precip Events Conditions
12:00 AM 58 °F 54 °F 81% 30.06 in 19 mi ENE 4.5 mph - -  
12:00 AM 57.2 °F 53.6 °F 88% 30.04 in - ENE 4.6 mph - N/A   Clear
12:30 AM 59.0 °F 53.6 °F 82% 30.04 in - North 2.3 mph - N/A   Clear
1:00 AM 58 °F 54 °F 83% 30.06 in 19 mi North 2.2 mph - -  
1:00 AM 57.2 °F 53.6 °F 88% 30.06 in - North 1.2 mph - N/A   Clear
1:30 AM 59.0 °F 53.6 °F 82% 30.04 in - Calm Calm - N/A   Clear
2:00 AM 56 °F 52 °F 82% 30.06 in 19 mi ENE 6.7 mph - -  
2:00 AM 57.2 °F 51.8 °F 82% 30.04 in - ENE 4.6 mph - N/A   Clear
2:30 AM 55.4 °F 50.0 °F 82% 30.04 in - ENE 5.8 mph - N/A   Clear
3:00 AM 57 °F 52 °F 79% 30.05 in 19 mi ENE 8.9 mph - -  
3:00 AM 57.2 °F 51.8 °F 82% 30.04 in - ENE 9.2 mph - N/A   Clear
3:30 AM 57.2 °F 51.8 °F 82% 30.04 in - NE 8.1 mph - N/A   Clear
4:00 AM 57 °F 52 °F 77% 30.05 in 19 mi NE 8.9 mph - -  
4:00 AM 57.2 °F 51.8 °F 82% 30.04 in - NE 9.2 mph - N/A   Clear
4:30 AM 57.2 °F 51.8 °F 82% 30.04 in - NE 8.1 mph - N/A   Clear
5:00 AM 56 °F 51 °F 77% 30.05 in 19 mi NE 8.9 mph - -  
5:00 AM 55.4 °F 50.0 °F 82% 30.04 in - ENE 8.1 mph - N/A   Clear
5:30 AM 55.4 °F 50.0 °F 82% 30.04 in - NE 8.1 mph - N/A   Clear
6:00 AM 54 °F 50 °F 82% 30.06 in 16 mi NE 6.7 mph - -  
6:00 AM 53.6 °F 50.0 °F 88% 30.04 in - NE 6.9 mph - N/A   Clear
6:30 AM 55.4 °F 50.0 °F 82% 30.04 in - NE 10.4 mph - N/A   Clear
7:00 AM 56 °F 50 °F 73% 30.06 in 16 mi NE 6.7 mph - -   Scattered Clouds
7:00 AM 55.4 °F 50.0 °F 82% 30.04 in - NE 8.1 mph - N/A   Clear
7:30 AM 57.2 °F 50.0 °F 77% 30.06 in - NE 8.1 mph - N/A   Clear
8:00 AM 60.8 °F 50.0 °F 68% 30.06 in - NE 8.1 mph - N/A   Clear
8:30 AM 60.8 °F 50.0 °F 68% 30.06 in - ENE 10.4 mph - N/A   Clear
9:00 AM 63 °F 50 °F 52% 30.06 in 19 mi ENE 8.9 mph - -   Scattered Clouds
9:00 AM 62.6 °F 50.0 °F 63% 30.06 in - ENE 9.2 mph - N/A   Clear
9:30 AM 64.4 °F 48.2 °F 56% 30.06 in - East 9.2 mph - N/A   Clear
10:00 AM 65 °F 49 °F 46% 30.06 in 19 mi East 8.9 mph - -   Scattered Clouds
10:00 AM 64.4 °F 50.0 °F 59% 30.06 in 6.2 mi East 8.1 mph - N/A   Partly Cloudy
10:30 AM 66.2 °F 50.0 °F 56% 30.06 in 6.2 mi East 9.2 mph - N/A   Partly Cloudy
11:00 AM 68 °F 48 °F 38% 30.06 in 19 mi East 8.9 mph - -   Scattered Clouds
11:00 AM 68.0 °F 48.2 °F 49% 30.06 in 6.2 mi East 8.1 mph - N/A   Partly Cloudy
11:30 AM 69.8 °F 50.0 °F 49% 30.04 in 6.2 mi ESE 9.2 mph - N/A   Partly Cloudy
12:00 PM 71 °F 49 °F 35% 30.04 in 19 mi ESE 8.9 mph - -   Scattered Clouds
12:00 PM 69.8 °F 50.0 °F 49% 30.04 in - ESE 8.1 mph - N/A   Clear
12:30 PM 71.6 °F 50.0 °F 46% 30.04 in - ESE 6.9 mph - N/A   Clear
1:00 PM 73 °F 49 °F 32% 30.03 in 19 mi ESE 6.7 mph - -   Scattered Clouds
1:00 PM 73.4 °F 50.0 °F 44% 30.04 in - ESE 6.9 mph - N/A   Clear
1:30 PM 73.4 °F 48.2 °F 41% 30.04 in - ESE 5.8 mph - N/A   Clear
2:00 PM 75 °F 49 °F 28% 30.01 in 22 mi ESE 6.7 mph - -   Scattered Clouds
2:00 PM 75.2 °F 46.4 °F 36% 30.01 in - SE 5.8 mph - N/A   Clear
2:30 PM 77.0 °F 50.0 °F 39% 30.01 in - SE 8.1 mph - N/A   Clear
3:00 PM 77 °F 51 °F 29% 29.99 in 22 mi SE 6.7 mph - -   Scattered Clouds
3:00 PM 77.0 °F 50.0 °F 39% 30.01 in - SSE 6.9 mph - N/A   Clear
3:30 PM 77.0 °F 48.2 °F 36% 30.01 in - South 5.8 mph - N/A   Clear
4:00 PM 77 °F 50 °F 27% 29.99 in 22 mi South 6.7 mph - -   Scattered Clouds
4:00 PM 77.0 °F 50.0 °F 39% 30.01 in - South 6.9 mph - N/A   Clear
4:30 PM 77.0 °F 50.0 °F 39% 29.98 in - SSE 5.8 mph - N/A   Clear
5:00 PM 77 °F 53 °F 33% 29.98 in 22 mi SE 4.5 mph - -   Scattered Clouds
5:00 PM 77.0 °F 50.0 °F 39% 29.98 in - SSE 5.8 mph - N/A   Clear
5:30 PM 77.0 °F 51.8 °F 41% 29.98 in - SE 5.8 mph - N/A   Clear
6:00 PM 76 °F 53 °F 33% 29.97 in 22 mi SE 4.5 mph - -   Scattered Clouds
6:00 PM 75.2 °F 51.8 °F 44% 29.98 in - SSE 4.6 mph - N/A   Clear
6:30 PM 75.2 °F 51.8 °F 44% 29.98 in - SE 5.8 mph - N/A   Clear
7:00 PM 73 °F 54 °F 41% 29.98 in 22 mi ESE 4.5 mph - -   Clear
7:00 PM 73.4 °F 53.6 °F 50% 29.98 in - ESE 5.8 mph - N/A   Clear
7:30 PM 71.6 °F 53.6 °F 53% 29.98 in - East 5.8 mph - N/A   Clear
8:00 PM 69 °F 54 °F 48% 30.00 in 19 mi East 4.5 mph - -   Clear
8:00 PM 69.8 °F 53.6 °F 56% 30.01 in - ESE 5.8 mph - N/A   Clear
8:30 PM 66.2 °F 55.4 °F 68% 30.01 in - East 3.5 mph - N/A   Clear
9:00 PM 65 °F 55 °F 61% 30.02 in 19 mi North 4.5 mph - -  
9:00 PM 66.2 °F 55.4 °F 68% 30.01 in - North 4.6 mph - N/A   Clear
9:30 PM 64.4 °F 53.6 °F 68% 30.01 in - NNE 3.5 mph - N/A   Clear
10:00 PM 64 °F 54 °F 61% 30.03 in 19 mi North 2.2 mph - -  
10:00 PM 64.4 °F 53.6 °F 68% 30.04 in - North 2.3 mph - N/A   Clear
10:30 PM 62.6 °F 53.6 °F 72% 30.04 in - North 4.6 mph - N/A   Clear
11:00 PM 61 °F 53 °F 67% 30.04 in 19 mi NNE 2.2 mph - -  
11:00 PM 60.8 °F 51.8 °F 72% 30.04 in - NNE 3.5 mph - N/A   Clear
11:30 PM 60.8 °F 51.8 °F 72% 30.04 in - NNE 3.5 mph - N/A   Clear